When you browse on this site, cookies collect data to enhance your experience and personalize the content and advertising you see.
Visit our Privacy Policy to learn more. By continuing to use the site, you agree to this use of cookies and data.

Hourly Weather Encamp

Today, 11 August, Tuesday

Time Temperature Precipitation Wind Pressure Humidity
00:00 +18°C° 0 mm 1 mps 626 mmHg 56%
01:00 +16°C° 0 mm 1 mps 625 mmHg 57%
02:00 +16°C° 0 mm 1 mps 625 mmHg 59%
03:00 +15°C° 0 mm 1 mps 625 mmHg 60%
04:00 +16°C° 0 mm 1 mps 625 mmHg 61%
05:00 +16°C° 0 mm 2 mps 625 mmHg 61%
06:00 +16°C° 0 mm 2 mps 625 mmHg 62%
07:00 +19°C° 0 mm 2 mps 626 mmHg 54%
08:00 +21°C° 0 mm 2 mps 628 mmHg 45%
09:00 +25°C° 0 mm 2 mps 629 mmHg 37%
10:00 +26°C° 0 mm 2 mps 629 mmHg 35%
11:00 +27°C° 0 mm 2 mps 629 mmHg 33%
12:00 +27°C° 0 mm 3 mps 629 mmHg 31%
13:00 +27°C° 0 mm 3 mps 629 mmHg 32%
14:00 +27°C° 0 mm 3 mps 628 mmHg 33%
15:00 +27°C° 0 mm 3 mps 628 mmHg 34%
16:00 +25°C° 0 mm 2 mps 627 mmHg 41%
17:00 +24°C° 0 mm 2 mps 627 mmHg 48%
18:00 +23°C° 0 mm 2 mps 627 mmHg 55%
19:00 +21°C° 0 mm 1 mps 626 mmHg 59%
20:00 +19°C° 0 mm 1 mps 626 mmHg 63%
21:00 +18°C° 0 mm 1 mps 626 mmHg 67%
22:00 +18°C° 0 mm 1 mps 626 mmHg 66%
23:00 +18°C° 0 mm 1 mps 625 mmHg 65%

Tomorrow, 12 August, Wednesday

Time Temperature Precipitation Wind Pressure Humidity
00:00 +16°C° 0 mm 1 mps 625 mmHg 64%
01:00 +16°C° 0 mm 1 mps 625 mmHg 65%
02:00 +16°C° 0 mm 1 mps 625 mmHg 66%
03:00 +15°C° 0 mm 2 mps 625 mmHg 67%
04:00 +15°C° 0 mm 2 mps 625 mmHg 66%
05:00 +16°C° 0 mm 2 mps 625 mmHg 65%
06:00 +16°C° 0 mm 2 mps 625 mmHg 64%
07:00 +18°C° 0 mm 2 mps 625 mmHg 55%
08:00 +20°C° 0 mm 2 mps 626 mmHg 46%
09:00 +21°C° 0 mm 3 mps 627 mmHg 37%
10:00 +22°C° 0 mm 3 mps 627 mmHg 39%
11:00 +22°C° 0 mm 4 mps 627 mmHg 41%
12:00 +23°C° 0 mm 4 mps 627 mmHg 43%
13:00 +22°C° 0.6 mm 4 mps 626 mmHg 51%
14:00 +21°C° 0.6 mm 4 mps 626 mmHg 58%
15:00 +20°C° 0.6 mm 3 mps 625 mmHg 66%
16:00 +19°C° 0.9 mm 3 mps 625 mmHg 71%
17:00 +18°C° 0.9 mm 2 mps 625 mmHg 77%
18:00 +17°C° 0.9 mm 2 mps 624 mmHg 83%
19:00 +16°C° 0.6 mm 1 mps 624 mmHg 84%
20:00 +15°C° 0.6 mm 1 mps 625 mmHg 86%
21:00 +13°C° 0.6 mm 1 mps 625 mmHg 88%
22:00 +13°C° 0 mm 1 mps 625 mmHg 87%
23:00 +13°C° 0 mm 1 mps 624 mmHg 86%

Day after tomorrow, 13 August, Thursday

Time Temperature Precipitation Wind Pressure Humidity
00:00 +13°C° 0 mm 1 mps 624 mmHg 85%
01:00 +13°C° 0 mm 1 mps 624 mmHg 85%
02:00 +13°C° 0 mm 1 mps 624 mmHg 85%
03:00 +13°C° 0 mm 1 mps 624 mmHg 85%
04:00 +13°C° 0 mm 1 mps 624 mmHg 85%
05:00 +13°C° 0 mm 1 mps 625 mmHg 85%
06:00 +12°C° 0 mm 0 mps 625 mmHg 85%
07:00 +15°C° 0.1 mm 1 mps 626 mmHg 77%
08:00 +18°C° 0.1 mm 1 mps 627 mmHg 70%
09:00 +19°C° 0.1 mm 2 mps 628 mmHg 62%
10:00 +20°C° 0 mm 2 mps 628 mmHg 57%
11:00 +21°C° 0 mm 2 mps 628 mmHg 53%
12:00 +23°C° 0 mm 2 mps 628 mmHg 49%
13:00 +21°C° 0.2 mm 2 mps 628 mmHg 52%
14:00 +21°C° 0.2 mm 2 mps 628 mmHg 56%
15:00 +20°C° 0.2 mm 2 mps 627 mmHg 59%
16:00 +20°C° 0.3 mm 1 mps 627 mmHg 65%
17:00 +20°C° 0.3 mm 1 mps 626 mmHg 70%
18:00 +19°C° 0.3 mm 1 mps 626 mmHg 76%
19:00 +16°C° 0.1 mm 1 mps 626 mmHg 80%
20:00 +15°C° 0.1 mm 1 mps 625 mmHg 84%
21:00 +13°C° 0.1 mm 1 mps 625 mmHg 88%
22:00 +13°C° 0 mm 1 mps 625 mmHg 88%
23:00 +13°C° 0 mm 1 mps 625 mmHg 87%

14 August, Friday

Time Temperature Precipitation Wind Pressure Humidity
00:00 +12°C° 0 mm 1 mps 625 mmHg 87%
01:00 +12°C° 0 mm 1 mps 625 mmHg 87%
02:00 +12°C° 0 mm 1 mps 625 mmHg 88%
03:00 +12°C° 0 mm 1 mps 625 mmHg 88%
04:00 +12°C° 0 mm 1 mps 625 mmHg 86%
05:00 +13°C° 0 mm 1 mps 625 mmHg 84%
06:00 +13°C° 0 mm 1 mps 625 mmHg 82%
07:00 +16°C° 0 mm 1 mps 626 mmHg 70%
08:00 +20°C° 0 mm 1 mps 627 mmHg 58%
09:00 +22°C° 0 mm 1 mps 628 mmHg 46%
10:00 +23°C° 0 mm 2 mps 628 mmHg 44%
11:00 +24°C° 0 mm 2 mps 628 mmHg 43%
12:00 +24°C° 0 mm 3 mps 628 mmHg 41%
13:00 +24°C° 0.1 mm 2 mps 628 mmHg 44%
14:00 +24°C° 0.1 mm 2 mps 627 mmHg 47%
15:00 +23°C° 0.1 mm 2 mps 627 mmHg 50%
16:00 +22°C° 0.2 mm 1 mps 626 mmHg 56%
17:00 +21°C° 0.2 mm 1 mps 626 mmHg 63%
18:00 +20°C° 0.2 mm 1 mps 625 mmHg 69%
19:00 +18°C° 0 mm 1 mps 625 mmHg 73%
20:00 +16°C° 0 mm 1 mps 624 mmHg 77%
21:00 +14°C° 0 mm 1 mps 624 mmHg 80%
22:00 +14°C° 0 mm 1 mps 624 mmHg 81%
23:00 +14°C° 0 mm 1 mps 624 mmHg 81%

15 August, Saturday

Time Temperature Precipitation Wind Pressure Humidity
00:00 +14°C° 0 mm 1 mps 624 mmHg 81%
01:00 +14°C° 0 mm 1 mps 624 mmHg 79%
02:00 +14°C° 0 mm 1 mps 623 mmHg 77%
03:00 +14°C° 0 mm 1 mps 623 mmHg 75%
04:00 +14°C° 0 mm 1 mps 623 mmHg 72%
05:00 +14°C° 0 mm 1 mps 624 mmHg 69%
06:00 +15°C° 0 mm 1 mps 624 mmHg 66%
07:00 +18°C° 0 mm 1 mps 625 mmHg 58%
08:00 +21°C° 0 mm 1 mps 626 mmHg 49%
09:00 +23°C° 0 mm 1 mps 627 mmHg 41%
10:00 +24°C° 0 mm 2 mps 627 mmHg 38%
11:00 +25°C° 0 mm 2 mps 627 mmHg 36%
12:00 +26°C° 0 mm 3 mps 627 mmHg 33%
13:00 +26°C° 0 mm 3 mps 627 mmHg 34%
14:00 +25°C° 0 mm 3 mps 627 mmHg 35%
15:00 +25°C° 0 mm 3 mps 626 mmHg 36%
16:00 +24°C° 0.1 mm 2 mps 625 mmHg 44%
17:00 +22°C° 0.1 mm 1 mps 625 mmHg 53%
18:00 +21°C° 0.1 mm 1 mps 624 mmHg 61%
19:00 +19°C° 0 mm 1 mps 624 mmHg 66%
20:00 +16°C° 0 mm 1 mps 623 mmHg 70%
21:00 +15°C° 0 mm 1 mps 623 mmHg 75%
22:00 +15°C° 0 mm 1 mps 623 mmHg 75%
23:00 +15°C° 0 mm 1 mps 623 mmHg 76%

16 August, Sunday

Time Temperature Precipitation Wind Pressure Humidity
00:00 +14°C° 0 mm 1 mps 623 mmHg 77%
01:00 +14°C° 0 mm 1 mps 623 mmHg 75%
02:00 +14°C° 0 mm 1 mps 622 mmHg 73%
03:00 +14°C° 0 mm 1 mps 622 mmHg 71%
04:00 +14°C° 0 mm 1 mps 622 mmHg 69%
05:00 +14°C° 0 mm 1 mps 623 mmHg 66%
06:00 +14°C° 0 mm 1 mps 623 mmHg 64%
07:00 +16°C° 0 mm 1 mps 624 mmHg 56%
08:00 +19°C° 0 mm 2 mps 625 mmHg 49%
09:00 +21°C° 0 mm 2 mps 625 mmHg 41%
10:00 +21°C° 0 mm 2 mps 626 mmHg 40%
11:00 +22°C° 0 mm 3 mps 626 mmHg 39%
12:00 +22°C° 0 mm 3 mps 626 mmHg 38%
13:00 +22°C° 0 mm 4 mps 626 mmHg 41%
14:00 +21°C° 0 mm 4 mps 625 mmHg 43%
15:00 +21°C° 0 mm 4 mps 625 mmHg 46%
16:00 +19°C° 0 mm 3 mps 625 mmHg 52%
17:00 +18°C° 0 mm 2 mps 624 mmHg 58%
18:00 +18°C° 0 mm 1 mps 624 mmHg 64%
19:00 +15°C° 0 mm 1 mps 624 mmHg 70%
20:00 +14°C° 0 mm 1 mps 623 mmHg 76%
21:00 +12°C° 0 mm 1 mps 623 mmHg 82%
22:00 +12°C° 0 mm 1 mps 623 mmHg 84%
23:00 +11°C° 0 mm 1 mps 623 mmHg 86%
Show more